Weather History for KBKE - April, 2013

Change the Weather History Date:

Wednesday, April 10, 2013

  Actual Average Record
Temperature  
Mean Temperature 43 °F 42 °F  
Max Temperature 58 °F 57 °F 76 °F (1985)
Min Temperature 28 °F 28 °F 15 °F (2010)
Degree Days  
Heating Degree Days 22 23  
Month to date heating degree days 194 234  
Since 1 July heating degree days 6415 6602  
Cooling Degree Days 0 0  
Month to date cooling degree days 0 0  
Year to date cooling degree days 0 0  
Moisture  
Dew Point 32 °F    
Average Humidity 68    
Maximum Humidity 89    
Minimum Humidity 47    
Precipitation  
Precipitation 0.02 in 0.02 in 0.16 in (1958)
Month to date precipitation 0.31 0.25  
Year to date precipitation 1.89 2.45  
Sea Level Pressure  
Sea Level Pressure 30.13 in    
Wind  
Wind Speed 7 mph (NNE)    
Max Wind Speed 23 mph    
Max Gust Speed 26 mph    
Visibility 10 miles    
Events Rain    
T = Trace of Precipitation, MM = Missing Value Source: NWS Daily Summary

Daily Weather History Graph

Daily Weather History Graph

Search for Another Location

Airport or City:

Trip Planner

Search our weather history database for the weather conditions in past years. The results will help you decide how hot, cold, wet, or windy it might be!

Date:

Astronomy

Apr. 10, 2013 Rise Set
Actual Time 6:14 AM PDT 7:30 PM PDT
Civil Twilight 5:44 AM PDT 8:00 PM PDT
Nautical Twilight 5:08 AM PDT 8:37 PM PDT
Astronomical Twilight 4:30 AM PDT 9:15 PM PDT
Moon 6:12 AM PDT (4/10) 8:14 PM PDT (4/10)
Length of Visible Light 14h 16m
Length of Day
13h 15m
New Moon, 0% of the Moon is Illuminated
Apr 10
New Moon
Apr 18
First Quarter
Apr 25
Full
May 2
Last Quarter
May 9
New

Hourly Weather History & Observations

Time (PDT) Temp. Windchill Dew Point Humidity Pressure Visibility Wind Dir Wind Speed Gust Speed Precip Events Conditions
12:53 AM 32.0 °F 27.5 °F 26.1 °F 79% 30.26 in 10.0 mi SSE 4.6 mph - N/A   Clear
1:53 AM 28.9 °F - 25.0 °F 85% 30.26 in 10.0 mi Calm Calm - N/A   Clear
2:53 AM 30.9 °F - 26.1 °F 82% 30.23 in 10.0 mi Calm Calm - N/A   Clear
3:53 AM 30.0 °F - 27.0 °F 88% 30.22 in 10.0 mi Calm Calm - N/A   Overcast
4:53 AM 32.0 °F - 28.0 °F 85% 30.22 in 10.0 mi Calm Calm - N/A   Mostly Cloudy
5:53 AM 32.0 °F 25.6 °F 28.0 °F 85% 30.21 in 10.0 mi ESE 6.9 mph - N/A   Scattered Clouds
6:53 AM 34.0 °F - 30.0 °F 85% 30.22 in 10.0 mi Calm Calm - N/A   Mostly Cloudy
7:53 AM 37.0 °F - 30.9 °F 79% 30.22 in 10.0 mi Calm Calm - N/A   Partly Cloudy
8:53 AM 41.0 °F 38.0 °F 32.0 °F 70% 30.20 in 10.0 mi ENE 4.6 mph - N/A   Clear
9:53 AM 44.1 °F 42.5 °F 30.9 °F 60% 30.18 in 10.0 mi East 3.5 mph - N/A   Scattered Clouds
10:53 AM 48.2 °F - 32.0 °F 54% 30.11 in 10.0 mi East 4.6 mph - N/A   Scattered Clouds
11:53 AM 52.0 °F - 33.1 °F 49% 30.10 in 10.0 mi East 8.1 mph - N/A   Partly Cloudy
12:53 PM 55.0 °F - 35.1 °F 47% 30.05 in 10.0 mi NE 11.5 mph - N/A   Partly Cloudy
1:53 PM 55.9 °F - 36.0 °F 47% 30.05 in 10.0 mi NE 15.0 mph - N/A   Mostly Cloudy
2:53 PM 54.0 °F - 36.0 °F 51% 30.03 in 10.0 mi NE 9.2 mph - N/A   Overcast
3:53 PM 55.9 °F - 39.9 °F 55% 30.01 in 10.0 mi ENE 8.1 mph - 0.00 in   Mostly Cloudy
4:53 PM 51.1 °F - 46.9 °F 86% 30.04 in 10.0 mi North 9.2 mph - 0.01 in Rain Light Rain
5:53 PM 52.0 °F - 44.1 °F 74% 30.05 in 10.0 mi North 8.1 mph - 0.01 in   Mostly Cloudy
6:53 PM 50.0 °F - 35.1 °F 57% 30.06 in 10.0 mi NW 12.7 mph - 0.00 in   Partly Cloudy
7:53 PM 45.0 °F 39.3 °F 32.0 °F 60% 30.06 in 10.0 mi NW 11.5 mph - N/A   Clear
8:53 PM 43.0 °F 38.2 °F 30.9 °F 62% 30.08 in 10.0 mi WNW 8.1 mph - N/A   Clear
9:53 PM 43.0 °F 36.0 °F 28.9 °F 58% 30.09 in 10.0 mi NNW 13.8 mph - N/A   Clear
10:53 PM 42.1 °F 35.2 °F 30.0 °F 62% 30.11 in 10.0 mi NNW 12.7 mph 24.2 mph N/A   Clear
11:53 PM 39.0 °F 29.3 °F 30.0 °F 70% 30.11 in 10.0 mi North 19.6 mph - N/A   Clear